• In Hungary
  • List of Countries
  • For 7 days
  • Water Temperature
  • Satellite Maps
  • Weather Map
  • News
  • Weather Widgets
  • user-avatar
    Login

    Hourly Weather Altamura

    Today, 23 June, Saturday

    Time Temperature Precipitation Wind Pressure Humidity
    00:00 +22°C° 0.6 mm 4 mps 721 mmHg 72%
    01:00 +21°C° 0 mm 6 mps 721 mmHg 77%
    02:00 +21°C° 0.3 mm 6 mps 721 mmHg 78%
    03:00 +20°C° 0.3 mm 6 mps 721 mmHg 79%
    04:00 +20°C° 0.3 mm 6 mps 722 mmHg 80%
    05:00 +20°C° 0 mm 6 mps 722 mmHg 76%
    06:00 +20°C° 0 mm 6 mps 722 mmHg 72%
    07:00 +20°C° 0 mm 7 mps 723 mmHg 68%
    08:00 +21°C° 0 mm 6 mps 723 mmHg 62%
    09:00 +22°C° 0 mm 6 mps 723 mmHg 56%
    10:00 +23°C° 0 mm 6 mps 724 mmHg 49%
    11:00 +24°C° 0 mm 6 mps 724 mmHg 45%
    12:00 +24°C° 0 mm 6 mps 724 mmHg 41%
    13:00 +26°C° 0 mm 6 mps 724 mmHg 36%
    14:00 +26°C° 0 mm 6 mps 724 mmHg 36%
    15:00 +26°C° 0 mm 6 mps 724 mmHg 36%
    16:00 +25°C° 0 mm 5 mps 723 mmHg 36%
    17:00 +23°C° 0 mm 5 mps 723 mmHg 39%
    18:00 +22°C° 0 mm 5 mps 723 mmHg 42%
    19:00 +21°C° 0 mm 4 mps 723 mmHg 46%
    20:00 +20°C° 0 mm 4 mps 723 mmHg 47%
    21:00 +19°C° 0 mm 4 mps 723 mmHg 48%
    22:00 +19°C° 0 mm 4 mps 723 mmHg 49%
    23:00 +18°C° 0 mm 4 mps 723 mmHg 51%

    Tomorrow, 24 June, Sunday

    Time Temperature Precipitation Wind Pressure Humidity
    00:00 +18°C° 0 mm 4 mps 723 mmHg 52%
    01:00 +17°C° 0 mm 4 mps 723 mmHg 54%
    02:00 +17°C° 0 mm 4 mps 723 mmHg 56%
    03:00 +17°C° 0 mm 4 mps 723 mmHg 58%
    04:00 +17°C° 0 mm 4 mps 723 mmHg 59%
    05:00 +18°C° 0 mm 4 mps 723 mmHg 58%
    06:00 +19°C° 0 mm 4 mps 723 mmHg 56%
    07:00 +20°C° 0 mm 4 mps 723 mmHg 55%
    08:00 +21°C° 0 mm 4 mps 723 mmHg 51%
    09:00 +22°C° 0 mm 4 mps 724 mmHg 46%
    10:00 +25°C° 0 mm 4 mps 724 mmHg 42%
    11:00 +25°C° 0 mm 4 mps 724 mmHg 41%
    12:00 +26°C° 0 mm 4 mps 724 mmHg 39%
    13:00 +27°C° 0 mm 4 mps 724 mmHg 37%
    14:00 +26°C° 0 mm 4 mps 724 mmHg 38%
    15:00 +26°C° 0 mm 4 mps 724 mmHg 39%
    16:00 +26°C° 0 mm 4 mps 723 mmHg 39%
    17:00 +25°C° 0 mm 3 mps 723 mmHg 43%
    18:00 +24°C° 0 mm 3 mps 723 mmHg 47%
    19:00 +22°C° 0 mm 3 mps 722 mmHg 51%
    20:00 +21°C° 0 mm 2 mps 723 mmHg 53%
    21:00 +20°C° 0 mm 2 mps 723 mmHg 56%
    22:00 +19°C° 0 mm 2 mps 723 mmHg 58%
    23:00 +19°C° 0 mm 2 mps 722 mmHg 59%

    Day after tomorrow, 25 June, Monday

    Time Temperature Precipitation Wind Pressure Humidity
    00:00 +19°C° 0 mm 2 mps 722 mmHg 60%
    01:00 +18°C° 0 mm 2 mps 722 mmHg 61%
    02:00 +18°C° 0 mm 2 mps 722 mmHg 62%
    03:00 +18°C° 0 mm 2 mps 721 mmHg 64%
    04:00 +17°C° 0 mm 2 mps 721 mmHg 65%
    05:00 +18°C° 0 mm 3 mps 721 mmHg 62%
    06:00 +19°C° 0 mm 3 mps 721 mmHg 60%
    07:00 +20°C° 0 mm 3 mps 722 mmHg 57%
    08:00 +21°C° 0.1 mm 3 mps 722 mmHg 53%
    09:00 +24°C° 0.1 mm 3 mps 722 mmHg 48%
    10:00 +25°C° 0.1 mm 4 mps 722 mmHg 44%
    11:00 +25°C° 0 mm 4 mps 722 mmHg 43%
    12:00 +26°C° 0 mm 4 mps 722 mmHg 42%
    13:00 +26°C° 0 mm 5 mps 722 mmHg 40%
    14:00 +26°C° 0.1 mm 5 mps 722 mmHg 41%
    15:00 +26°C° 0.1 mm 5 mps 722 mmHg 42%
    16:00 +26°C° 0.1 mm 5 mps 721 mmHg 42%
    17:00 +25°C° 0 mm 5 mps 721 mmHg 46%
    18:00 +23°C° 0 mm 5 mps 721 mmHg 49%
    19:00 +22°C° 0 mm 4 mps 721 mmHg 53%
    20:00 +21°C° 0 mm 4 mps 722 mmHg 55%
    21:00 +20°C° 0 mm 4 mps 722 mmHg 57%
    22:00 +19°C° 0 mm 4 mps 722 mmHg 59%
    23:00 +19°C° 0 mm 4 mps 721 mmHg 61%

    26 June, Tuesday

    Time Temperature Precipitation Wind Pressure Humidity
    00:00 +19°C° 0 mm 4 mps 721 mmHg 63%
    01:00 +18°C° 0 mm 4 mps 721 mmHg 65%
    02:00 +17°C° 0.2 mm 5 mps 721 mmHg 67%
    03:00 +17°C° 0.2 mm 5 mps 720 mmHg 69%
    04:00 +17°C° 0.2 mm 5 mps 720 mmHg 71%
    05:00 +17°C° 0.3 mm 5 mps 720 mmHg 68%
    06:00 +19°C° 0.3 mm 5 mps 720 mmHg 66%
    07:00 +20°C° 0.3 mm 5 mps 721 mmHg 64%
    08:00 +21°C° 0.4 mm 5 mps 721 mmHg 59%
    09:00 +22°C° 0.4 mm 5 mps 721 mmHg 54%
    10:00 +23°C° 0.4 mm 5 mps 721 mmHg 50%
    11:00 +23°C° 0.3 mm 5 mps 721 mmHg 49%
    12:00 +23°C° 0.3 mm 5 mps 721 mmHg 49%
    13:00 +25°C° 0.3 mm 5 mps 721 mmHg 49%
    14:00 +23°C° 0.5 mm 5 mps 721 mmHg 51%
    15:00 +23°C° 0.5 mm 5 mps 720 mmHg 52%
    16:00 +22°C° 0.5 mm 5 mps 720 mmHg 54%
    17:00 +22°C° 0.2 mm 5 mps 720 mmHg 57%
    18:00 +21°C° 0.2 mm 5 mps 720 mmHg 61%
    19:00 +20°C° 0.2 mm 5 mps 720 mmHg 64%
    20:00 +20°C° 0.1 mm 5 mps 720 mmHg 65%
    21:00 +19°C° 0.1 mm 5 mps 720 mmHg 67%
    22:00 +19°C° 0.1 mm 5 mps 720 mmHg 68%
    23:00 +19°C° 0 mm 5 mps 720 mmHg 69%

    27 June, Wednesday

    Time Temperature Precipitation Wind Pressure Humidity
    00:00 +19°C° 0 mm 5 mps 720 mmHg 70%
    01:00 +19°C° 0 mm 5 mps 720 mmHg 70%
    02:00 +19°C° 0.3 mm 5 mps 719 mmHg 71%
    03:00 +19°C° 0.3 mm 5 mps 719 mmHg 73%
    04:00 +19°C° 0.3 mm 5 mps 719 mmHg 74%
    05:00 +19°C° 0.3 mm 5 mps 719 mmHg 72%
    06:00 +20°C° 0.3 mm 5 mps 719 mmHg 71%
    07:00 +20°C° 0.3 mm 5 mps 719 mmHg 69%
    08:00 +21°C° 0.1 mm 6 mps 719 mmHg 64%
    09:00 +23°C° 0.1 mm 7 mps 720 mmHg 58%
    10:00 +24°C° 0.1 mm 8 mps 720 mmHg 53%
    11:00 +26°C° 0.3 mm 8 mps 720 mmHg 51%
    12:00 +26°C° 0.3 mm 8 mps 720 mmHg 50%
    13:00 +26°C° 0.3 mm 7 mps 720 mmHg 48%
    14:00 +26°C° 0.3 mm 7 mps 720 mmHg 49%
    15:00 +26°C° 0.3 mm 7 mps 720 mmHg 50%
    16:00 +24°C° 0.3 mm 6 mps 720 mmHg 51%
    17:00 +23°C° 0.1 mm 6 mps 720 mmHg 53%
    18:00 +23°C° 0.1 mm 5 mps 720 mmHg 55%
    19:00 +22°C° 0.1 mm 5 mps 720 mmHg 57%
    20:00 +22°C° 0.1 mm 5 mps 720 mmHg 59%
    21:00 +21°C° 0.1 mm 5 mps 720 mmHg 62%
    22:00 +21°C° 0.1 mm 5 mps 720 mmHg 65%
    23:00 +20°C° 0 mm 5 mps 720 mmHg 67%

    28 June, Thursday

    Time Temperature Precipitation Wind Pressure Humidity
    00:00 +20°C° 0 mm 5 mps 720 mmHg 68%
    01:00 +20°C° 0 mm 5 mps 720 mmHg 70%
    02:00 +20°C° 0 mm 4 mps 720 mmHg 71%
    03:00 +19°C° 0 mm 4 mps 720 mmHg 71%
    04:00 +19°C° 0 mm 4 mps 720 mmHg 72%
    05:00 +20°C° 0 mm 5 mps 720 mmHg 68%
    06:00 +21°C° 0 mm 5 mps 720 mmHg 65%
    07:00 +22°C° 0 mm 6 mps 720 mmHg 61%
    08:00 +23°C° 0 mm 6 mps 720 mmHg 57%
    09:00 +24°C° 0 mm 6 mps 720 mmHg 52%
    10:00 +26°C° 0 mm 6 mps 721 mmHg 48%
    11:00 +27°C° 0 mm 5 mps 721 mmHg 46%
    12:00 +27°C° 0 mm 5 mps 721 mmHg 43%
    13:00 +28°C° 0 mm 5 mps 721 mmHg 41%
    14:00 +28°C° 0 mm 5 mps 721 mmHg 41%
    15:00 +27°C° 0 mm 5 mps 721 mmHg 42%
    16:00 +27°C° 0 mm 5 mps 721 mmHg 42%
    17:00 +26°C° 0 mm 5 mps 721 mmHg 45%
    18:00 +25°C° 0 mm 4 mps 721 mmHg 48%
    19:00 +23°C° 0 mm 4 mps 721 mmHg 50%
    20:00 +22°C° 0 mm 3 mps 721 mmHg 53%
    21:00 +21°C° 0 mm 3 mps 721 mmHg 55%
    22:00 +20°C° 0 mm 3 mps 721 mmHg 58%
    23:00 +20°C° 0 mm 3 mps 721 mmHg 59%
    Show more